Middlebury State AP, Middlebu, VT

2:59 AM EDT on September 15, 2019 (GMT -0400)
Middlebury State AP, Middlebu

Weather History for K6B0 - July, 2019

Change the Weather History Date:

Monday, July 29, 2019

  Actual Average (KRUT) Record (KRUT)
Temperature  
Mean Temperature 80 °F -  
Max Temperature 87 °F 80 °F 92 °F (1963)
Min Temperature 73 °F 57 °F 44 °F (1987)
Cooling Degree Days 14    
Growing Degree Days 30 (Base 50)    
Moisture  
Dew Point 68 °F    
Average Humidity 67    
Maximum Humidity 82    
Minimum Humidity 52    
Precipitation  
Precipitation 0.00 in - - ()
Sea Level Pressure  
Sea Level Pressure 29.93 in    
Wind  
Wind Speed 5 mph ()    
Max Wind Speed 9 mph    
Max Gust Speed 16 mph    
Visibility 10.0 miles    
Events      
Averages and records for this station are not official NWS values.
T = Trace of Precipitation, MM = Missing Value Source: Averaged Metar Reports

Daily Weather History Graph

Daily Weather History Graph

Search for Another Location

Airport or City:

Astronomy

Jul. 29, 2019 Rise Set
Actual Time 5:37 AM EDT 8:19 PM EDT
Civil Twilight 5:03 AM EDT 8:53 PM EDT
Nautical Twilight 4:21 AM EDT 9:35 PM EDT
Astronomical Twilight 3:33 AM EDT 10:23 PM EDT
Moon 2:44 AM EDT (7/29) 6:23 PM EDT (7/29)
Length of Visible Light 15h 49m
Length of Day
14h 42m
Waning Crescent, 8% of the Moon is Illuminated
Jul 29
Waning Crescent
Jul 31
New
Aug 7
First Quarter
Aug 15
Full
Aug 23
Last Quarter

Hourly Weather History & Observations

Time (EDT) Temp. Heat Index Dew Point Humidity Pressure Visibility Wind Dir Wind Speed Gust Speed Precip Events Conditions
8:18 AM 73.4 °F - 67.5 °F 82% 29.98 in 10.0 mi South 6.9 mph - N/A   Clear
8:36 AM 74.3 °F - 67.8 °F 80% 29.97 in 10.0 mi South 5.8 mph - N/A   Clear
8:56 AM 75.4 °F - 68.0 °F 78% 29.97 in 10.0 mi South 6.9 mph - N/A   Clear
9:15 AM 75.6 °F - 68.2 °F 78% 29.97 in 10.0 mi South 8.1 mph - N/A   Clear
9:16 AM 75.7 °F - 68.2 °F 77% 29.97 in 10.0 mi South 8.1 mph - N/A   Clear
9:38 AM 76.5 °F - 68.2 °F 75% 29.97 in 10.0 mi SSW 9.2 mph 16.1 mph N/A   Scattered Clouds
9:56 AM 77.2 °F - 69.3 °F 76% 29.97 in 10.0 mi South 8.1 mph - N/A   Mostly Cloudy
10:15 AM 77.9 °F - 68.9 °F 74% 29.97 in 10.0 mi SSE 8.1 mph - N/A   Scattered Clouds
10:16 AM 77.9 °F - 68.9 °F 74% 29.97 in 10.0 mi South 6.9 mph - N/A   Scattered Clouds
10:35 AM 78.4 °F - 68.4 °F 71% 29.97 in 10.0 mi South 9.2 mph - N/A   Mostly Cloudy
10:55 AM 79.2 °F - 67.5 °F 67% 29.96 in 10.0 mi South 4.6 mph - N/A   Scattered Clouds
11:17 AM 80.2 °F 82.6 °F 66.9 °F 64% 29.96 in 10.0 mi SSW 5.8 mph - N/A   Clear
11:35 AM 81.0 °F 83.4 °F 67.3 °F 63% 29.96 in 10.0 mi South 5.8 mph - N/A   Clear
11:55 AM 81.9 °F 84.2 °F 66.7 °F 60% 29.96 in 10.0 mi South 6.9 mph - N/A   Clear
11:56 AM 82.0 °F 84.5 °F 66.7 °F 60% 29.96 in 10.0 mi South 5.8 mph - N/A   Clear
12:15 PM 81.9 °F 84.1 °F 66.2 °F 59% 29.96 in 10.0 mi South 3.5 mph - N/A   Clear
12:39 PM 82.4 °F 84.4 °F 65.8 °F 57% 29.95 in 10.0 mi SSE 3.5 mph - N/A   Clear
12:56 PM 82.9 °F 85.6 °F 67.1 °F 59% 29.94 in 10.0 mi Calm Calm - N/A   Scattered Clouds
1:16 PM 84.0 °F 86.8 °F 67.5 °F 57% 29.94 in 10.0 mi South 6.9 mph - N/A   Scattered Clouds
1:35 PM 84.0 °F 86.0 °F 65.5 °F 54% 29.93 in 10.0 mi Calm Calm - N/A   Mostly Cloudy
1:36 PM 83.8 °F 86.0 °F 65.8 °F 55% 29.93 in 10.0 mi Calm Calm - N/A   Mostly Cloudy
1:55 PM 84.6 °F 86.6 °F 65.5 °F 53% 29.93 in 10.0 mi South 4.6 mph - N/A   Overcast
1:59 PM 84.2 °F 85.8 °F 64.9 °F 52% 29.93 in 10.0 mi South 3.5 mph - N/A   Overcast
2:17 PM 83.8 °F 86.3 °F 66.6 °F 56% 29.92 in 10.0 mi SSE 6.9 mph - N/A   Overcast
2:35 PM 84.2 °F 87.1 °F 67.3 °F 57% 29.92 in 10.0 mi Calm Calm - N/A   Overcast
2:55 PM 79.7 °F - 71.1 °F 75% 29.92 in 10.0 mi Calm Calm - N/A   Mostly Cloudy
2:56 PM 79.7 °F - 70.9 °F 74% 29.92 in 10.0 mi Calm Calm - N/A   Mostly Cloudy
3:15 PM 79.2 °F - 71.8 °F 78% 29.91 in 10.0 mi Calm Calm - N/A   Overcast
3:16 PM 79.2 °F - 71.6 °F 78% 29.91 in 10.0 mi Calm Calm - N/A   Overcast
3:38 PM 84.0 °F 87.6 °F 68.5 °F 60% 29.91 in 10.0 mi Calm Calm - N/A   Mostly Cloudy
3:56 PM 81.9 °F 86.6 °F 72.0 °F 72% 29.91 in 10.0 mi SSE 3.5 mph - N/A   Mostly Cloudy
4:16 PM 80.6 °F 84.1 °F 70.5 °F 71% 29.90 in 10.0 mi ESE 3.5 mph - N/A   Mostly Cloudy
4:35 PM 85.8 °F 88.5 °F 66.9 °F 53% 29.90 in 10.0 mi South 9.2 mph - N/A   Overcast
4:55 PM 86.9 °F 89.9 °F 67.1 °F 52% 29.89 in 10.0 mi South 4.6 mph - N/A   Mostly Cloudy
5:17 PM 86.2 °F 89.1 °F 67.5 °F 53% 29.89 in 10.0 mi South 8.1 mph - N/A   Scattered Clouds
5:35 PM 85.8 °F 88.8 °F 67.6 °F 54% 29.89 in 10.0 mi South 6.9 mph - N/A   Clear
5:55 PM 85.3 °F 88.8 °F 68.7 °F 57% 29.89 in 10.0 mi South 5.8 mph - N/A   Clear
5:56 PM 85.3 °F 89.1 °F 68.9 °F 58% 29.89 in 10.0 mi South 5.8 mph - N/A   Clear
6:15 PM 84.2 °F 87.6 °F 68.5 °F 59% 29.89 in 10.0 mi SSE 3.5 mph - N/A   Clear
6:16 PM 84.2 °F 87.9 °F 68.7 °F 60% 29.89 in 10.0 mi SE 4.6 mph - N/A   Clear
6:39 PM 84.2 °F 87.9 °F 68.9 °F 60% 29.89 in 10.0 mi SSE 5.8 mph - N/A   Clear
6:57 PM 82.4 °F 86.1 °F 69.6 °F 65% 29.90 in 10.0 mi SE 4.6 mph - N/A   Clear
7:15 PM 79.7 °F - 70.5 °F 73% 29.90 in 10.0 mi Calm Calm - N/A   Clear
7:16 PM 79.5 °F - 70.7 °F 74% 29.90 in 10.0 mi Calm Calm - N/A   Clear
7:35 PM 78.1 °F - 68.7 °F 73% 29.90 in 10.0 mi SE 3.5 mph - N/A   Clear
7:55 PM 77.0 °F - 68.2 °F 74% 29.90 in 10.0 mi SSE 3.5 mph - N/A   Clear
8:18 PM 77.4 °F - 67.5 °F 71% 29.90 in 10.0 mi SSE 4.6 mph - N/A   Clear
8:36 PM 76.6 °F - 67.3 °F 73% 29.91 in 10.0 mi SSE 3.5 mph - N/A   Clear
8:55 PM 77.4 °F - 66.9 °F 70% 29.92 in 10.0 mi SSE 4.6 mph - N/A   Clear
8:56 PM 77.4 °F - 66.7 °F 70% 29.92 in 10.0 mi SSE 4.6 mph - N/A   Clear
9:15 PM 77.9 °F - 66.4 °F 68% 29.92 in 10.0 mi SE 4.6 mph - N/A   Clear
9:16 PM 77.9 °F - 66.4 °F 68% 29.92 in 10.0 mi SE 4.6 mph - N/A   Clear
9:39 PM 77.4 °F - 66.4 °F 69% 29.93 in 10.0 mi SSE 4.6 mph - N/A   Clear
9:56 PM 77.2 °F - 66.4 °F 69% 29.94 in 10.0 mi SE 4.6 mph - N/A   Clear
10:16 PM 77.4 °F - 66.4 °F 69% 29.94 in 10.0 mi SE 5.8 mph - N/A   Mostly Cloudy
10:35 PM 77.9 °F - 66.4 °F 68% 29.94 in 10.0 mi SSE 3.5 mph - N/A   Mostly Cloudy
10:36 PM 77.7 °F - 66.4 °F 68% 29.94 in 10.0 mi SSE 4.6 mph - N/A   Mostly Cloudy
10:55 PM 77.2 °F - 66.2 °F 69% 29.94 in 10.0 mi SSE 5.8 mph - N/A   Scattered Clouds
11:00 PM 77.4 °F - 66.2 °F 68% 29.94 in 10.0 mi SE 4.6 mph - N/A   Scattered Clouds
11:18 PM 77.2 °F - 66.2 °F 69% 29.94 in 10.0 mi SE 4.6 mph - N/A   Scattered Clouds
11:36 PM 77.2 °F - 66.4 °F 69% 29.94 in 10.0 mi SSE 3.5 mph - N/A   Scattered Clouds
11:55 PM 76.6 °F - 66.6 °F 71% 29.94 in 10.0 mi SE 3.5 mph - N/A   Clear
11:56 PM 76.8 °F - 66.6 °F 70% 29.94 in 10.0 mi SSE 3.5 mph - N/A   Clear